QPF
0.00 0.00 0.01 0.01 0.03 0.04 0.03 0.02 0.01 0.01 0.00 0.00 0.00 0.00 0.00 0.01 0.02 0.05 0.02 0.00 0.01 0.03 0.03 0.02 0.03 0.05 0.05 0.07 0.07 0.05 0.05 0.05 0.06 0.07 0.09 0.07 0.07 0.07 0.05 0.05 0.06 0.07 0.07 0.08 0.08 0.09 0.08 0.07 0.07
0.00 0.00 0.01 0.01 0.03 0.04 0.03 0.02 0.02 0.01 0.00 0.00 0.00 0.00 0.00 0.00 0.00 0.01 0.01 0.00 0.00 0.01 0.01 0.01 0.04 0.06 0.04 0.05 0.07 0.07 0.05 0.06 0.06 0.06 0.06 0.06 0.07 0.07 0.05 0.05 0.06 0.07 0.06 0.07 0.08 0.08 0.07 0.06 0.06
0.00 0.00 0.01 0.02 0.03 0.03 0.02 0.01 0.01 0.00 0.00 0.00 0.00 0.00 0.00 0.01 0.01 0.01 0.01 0.00 0.00 0.00 0.01 0.01 0.04 0.05 0.05 0.05 0.06 0.05 0.05 0.08 0.09 0.07 0.07 0.08 0.08 0.08 0.05 0.07 0.07 0.06 0.05 0.06 0.08 0.07 0.06 0.06 0.06
0.00 0.00 0.01 0.02 0.02 0.01 0.01 0.00 0.00 0.00 0.00 0.00 0.00 0.00 0.00 0.00 0.00 0.00 0.00 0.00 0.01 0.01 0.02 0.01 0.02 0.04 0.05 0.05 0.05 0.04 0.06 0.11 0.15 0.11 0.08 0.10 0.11 0.10 0.08 0.07 0.08 0.07 0.05 0.05 0.06 0.06 0.06 0.06 0.06
0.00 0.00 0.01 0.02 0.01 0.00 0.00 0.00 0.00 0.01 0.01 0.00 0.00 0.00 0.01 0.01 0.00 0.00 0.00 0.00 0.01 0.02 0.03 0.01 0.02 0.03 0.04 0.05 0.05 0.05 0.06 0.09 0.13 0.15 0.13 0.14 0.13 0.13 0.12 0.07 0.07 0.07 0.06 0.05 0.06 0.07 0.06 0.07 0.10
0.01 0.01 0.02 0.02 0.01 0.00 0.00 0.00 0.00 0.01 0.01 0.01 0.01 0.01 0.01 0.01 0.01 0.00 0.00 0.00 0.00 0.01 0.02 0.01 0.01 0.02 0.03 0.03 0.04 0.04 0.04 0.06 0.10 0.13 0.13 0.14 0.13 0.12 0.11 0.06 0.06 0.07 0.05 0.04 0.05 0.06 0.07 0.10 0.13
0.01 0.02 0.02 0.01 0.01 0.00 0.00 0.00 0.00 0.00 0.01 0.01 0.01 0.00 0.01 0.01 0.01 0.00 0.01 0.00 0.00 0.01 0.02 0.01 0.01 0.02 0.03 0.03 0.03 0.03 0.03 0.04 0.05 0.06 0.07 0.10 0.09 0.08 0.08 0.07 0.07 0.08 0.08 0.08 0.09 0.14 0.23 0.26 0.17
0.01 0.01 0.02 0.02 0.01 0.00 0.00 0.00 0.00 0.00 0.00 0.00 0.00 0.01 0.00 0.00 0.01 0.01 0.01 0.01 0.01 0.01 0.04 0.02 0.02 0.03 0.03 0.04 0.03 0.02 0.03 0.04 0.04 0.03 0.03 0.04 0.04 0.06 0.08 0.07 0.06 0.09 0.11 0.12 0.13 0.17 0.20 0.20 0.14
0.00 0.02 0.02 0.02 0.01 0.00 0.00 0.00 0.00 0.00 0.00 0.00 0.00 0.00 0.00 0.00 0.01 0.00 0.00 0.00 0.01 0.01 0.03 0.03 0.03 0.04 0.04 0.04 0.02 0.03 0.03 0.03 0.03 0.03 0.02 0.02 0.04 0.05 0.07 0.06 0.05 0.05 0.06 0.07 0.07 0.08 0.10 0.12 0.11
0.00 0.01 0.01 0.01 0.00 0.00 0.00 0.00 0.00 0.00 0.00 0.01 0.00 0.00 0.00 0.00 0.01 0.01 0.00 0.00 0.00 0.02 0.03 0.03 0.03 0.03 0.04 0.03 0.03 0.04 0.04 0.03 0.03 0.02 0.02 0.02 0.03 0.05 0.05 0.05 0.05 0.04 0.04 0.05 0.05 0.04 0.04 0.05 0.06
0.00 0.01 0.01 0.00 0.00 0.00 0.00 0.00 0.00 0.00 0.00 0.00 0.01 0.01 0.00 0.01 0.01 0.02 0.01 0.01 0.01 0.01 0.01 0.01 0.03 0.03 0.03 0.03 0.04 0.05 0.06 0.06 0.05 0.02 0.01 0.02 0.02 0.04 0.05 0.05 0.04 0.04 0.03 0.03 0.03 0.03 0.03 0.03 0.05
0.01 0.01 0.00 0.00 0.00 0.00 0.00 0.00 0.00 0.00 0.00 0.00 0.00 0.01 0.00 0.00 0.01 0.02 0.03 0.04 0.04 0.01 0.00 0.01 0.02 0.03 0.03 0.02 0.02 0.03 0.05 0.04 0.03 0.02 0.02 0.01 0.03 0.05 0.05 0.04 0.05 0.03 0.03 0.03 0.02 0.03 0.02 0.03 0.02
0.01 0.01 0.00 0.00 0.00 0.00 0.00 0.00 0.00 0.00 0.00 0.00 0.01 0.01 0.00 0.00 0.00 0.00 0.02 0.03 0.04 0.05 0.02 0.01 0.01 0.03 0.03 0.03 0.02 0.02 0.03 0.04 0.03 0.03 0.03 0.03 0.04 0.05 0.04 0.03 0.03 0.03 0.03 0.03 0.03 0.03 0.02 0.02 0.02
0.00 0.00 0.00 0.00 0.00 0.00 0.00 0.00 0.01 0.00 0.00 0.00 0.01 0.01 0.00 0.00 0.00 0.00 0.00 0.01 0.02 0.04 0.03 0.02 0.01 0.02 0.03 0.02 0.02 0.03 0.03 0.04 0.03 0.03 0.03 0.03 0.04 0.05 0.04 0.02 0.01 0.01 0.02 0.02 0.03 0.02 0.02 0.01 0.01
0.00 0.01 0.01 0.00 0.00 0.00 0.01 0.02 0.02 0.01 0.00 0.00 0.00 0.00 0.00 0.00 0.00 0.00 0.00 0.01 0.02 0.03 0.04 0.03 0.02 0.01 0.02 0.02 0.02 0.03 0.06 0.06 0.07 0.05 0.03 0.03 0.03 0.02 0.01 0.01 0.00 0.01 0.01 0.02 0.03 0.02 0.01 0.01 0.00
0.00 0.01 0.03 0.01 0.00 0.00 0.02 0.04 0.03 0.01 0.01 0.01 0.00 0.00 0.00 0.01 0.01 0.00 0.00 0.01 0.03 0.02 0.03 0.03 0.02 0.02 0.02 0.02 0.02 0.03 0.07 0.10 0.15 0.15 0.11 0.07 0.04 0.02 0.02 0.02 0.01 0.01 0.02 0.02 0.03 0.03 0.02 0.01 0.01
0.01 0.02 0.02 0.01 0.01 0.01 0.02 0.04 0.03 0.01 0.01 0.01 0.00 0.00 0.01 0.00 0.00 0.00 0.00 0.01 0.03 0.03 0.03 0.04 0.03 0.01 0.01 0.01 0.01 0.02 0.05 0.10 0.15 0.15 0.13 0.10 0.05 0.03 0.01 0.01 0.01 0.01 0.02 0.02 0.02 0.03 0.03 0.02 0.01
0.02 0.02 0.02 0.01 0.01 0.01 0.02 0.03 0.03 0.02 0.01 0.00 0.00 0.00 0.00 0.00 0.00 0.00 0.00 0.01 0.01 0.02 0.03 0.03 0.03 0.02 0.00 0.01 0.02 0.03 0.04 0.05 0.07 0.07 0.05 0.04 0.04 0.03 0.02 0.01 0.01 0.01 0.01 0.02 0.03 0.03 0.04 0.02 0.01
0.00 0.00 0.01 0.01 0.01 0.01 0.02 0.02 0.02 0.02 0.02 0.01 0.01 0.00 0.00 0.01 0.01 0.00 0.00 0.00 0.00 0.01 0.02 0.03 0.04 0.04 0.01 0.01 0.01 0.02 0.03 0.02 0.04 0.04 0.03 0.03 0.03 0.04 0.03 0.01 0.01 0.02 0.02 0.02 0.02 0.04 0.03 0.01 0.01
0.00 0.00 0.01 0.01 0.00 0.01 0.02 0.01 0.01 0.01 0.01 0.02 0.01 0.00 0.00 0.01 0.00 0.00 0.00 0.00 0.00 0.00 0.02 0.03 0.04 0.04 0.02 0.01 0.01 0.01 0.02 0.02 0.02 0.02 0.02 0.02 0.02 0.02 0.02 0.01 0.01 0.01 0.02 0.02 0.02 0.02 0.02 0.01 0.01
0.00 0.00 0.01 0.00 0.00 0.00 0.02 0.02 0.01 0.01 0.01 0.00 0.00 0.00 0.00 0.00 0.00 0.00 0.00 0.00 0.00 0.00 0.01 0.03 0.04 0.04 0.04 0.03 0.01 0.02 0.02 0.01 0.01 0.01 0.02 0.02 0.02 0.02 0.02 0.02 0.02 0.02 0.02 0.02 0.02 0.01 0.01 0.02 0.02
0.00 0.00 0.00 0.00 0.00 0.01 0.01 0.03 0.01 0.00 0.01 0.00 0.00 0.00 0.00 0.00 0.01 0.01 0.00 0.00 0.00 0.00 0.01 0.02 0.05 0.06 0.06 0.03 0.01 0.01 0.01 0.01 0.01 0.01 0.01 0.01 0.01 0.02 0.02 0.02 0.02 0.02 0.03 0.04 0.03 0.01 0.02 0.03 0.03
0.00 0.00 0.00 0.00 0.00 0.01 0.01 0.02 0.02 0.01 0.00 0.00 0.00 0.00 0.00 0.00 0.01 0.02 0.01 0.00 0.00 0.00 0.01 0.02 0.04 0.07 0.07 0.04 0.02 0.03 0.03 0.02 0.02 0.01 0.01 0.01 0.01 0.01 0.03 0.04 0.03 0.02 0.03 0.04 0.03 0.02 0.02 0.03 0.04
0.00 0.00 0.00 0.00 0.01 0.01 0.00 0.01 0.02 0.01 0.01 0.01 0.00 0.00 0.00 0.00 0.01 0.01 0.02 0.01 0.01 0.01 0.01 0.02 0.02 0.05 0.08 0.07 0.03 0.02 0.03 0.04 0.03 0.02 0.01 0.02 0.02 0.02 0.02 0.02 0.03 0.02 0.02 0.02 0.02 0.03 0.02 0.02 0.01
0.00 0.01 0.02 0.02 0.03 0.02 0.00 0.01 0.02 0.01 0.00 0.00 0.00 0.00 0.00 0.00 0.00 0.01 0.01 0.02 0.02 0.02 0.02 0.01 0.01 0.02 0.05 0.08 0.05 0.02 0.02 0.04 0.04 0.03 0.02 0.03 0.01 0.02 0.02 0.01 0.02 0.02 0.01 0.01 0.02 0.02 0.02 0.02 0.02
0.01 0.02 0.03 0.04 0.03 0.02 0.01 0.01 0.01 0.00 0.00 0.00 0.01 0.00 0.00 0.01 0.01 0.00 0.01 0.02 0.03 0.03 0.04 0.03 0.01 0.01 0.02 0.03 0.04 0.03 0.02 0.04 0.04 0.03 0.02 0.02 0.01 0.01 0.01 0.01 0.01 0.01 0.01 0.01 0.02 0.03 0.02 0.02 0.02
0.01 0.01 0.01 0.02 0.02 0.02 0.01 0.01 0.01 0.01 0.00 0.01 0.01 0.00 0.00 0.01 0.00 0.00 0.01 0.01 0.01 0.03 0.04 0.05 0.04 0.01 0.01 0.02 0.03 0.03 0.04 0.04 0.05 0.04 0.03 0.01 0.01 0.01 0.01 0.02 0.02 0.02 0.01 0.01 0.01 0.01 0.01 0.01 0.01
0.00 0.01 0.01 0.03 0.04 0.03 0.02 0.02 0.03 0.01 0.01 0.01 0.01 0.00 0.00 0.00 0.00 0.00 0.00 0.01 0.01 0.02 0.02 0.03 0.03 0.02 0.01 0.02 0.03 0.02 0.04 0.04 0.04 0.04 0.02 0.02 0.01 0.01 0.01 0.01 0.02 0.01 0.01 0.01 0.01 0.01 0.00 0.00 0.01
0.01 0.01 0.01 0.02 0.03 0.04 0.04 0.03 0.02 0.02 0.02 0.02 0.01 0.00 0.00 0.00 0.00 0.00 0.00 0.01 0.01 0.01 0.01 0.02 0.02 0.02 0.02 0.02 0.03 0.02 0.02 0.03 0.03 0.03 0.02 0.01 0.01 0.01 0.01 0.01 0.01 0.02 0.02 0.01 0.02 0.01 0.01 0.01 0.01
0.01 0.01 0.01 0.01 0.02 0.03 0.03 0.03 0.01 0.01 0.02 0.02 0.01 0.01 0.01 0.01 0.00 0.00 0.00 0.00 0.01 0.01 0.01 0.01 0.01 0.02 0.02 0.02 0.04 0.03 0.02 0.03 0.03 0.02 0.01 0.01 0.01 0.01 0.01 0.02 0.01 0.02 0.02 0.02 0.02 0.02 0.02 0.02 0.02
MSLP
1002.84 1003.51 1004.51 1005.72 1007.00 1008.20 1009.19 1009.91 1010.33 1010.49 1010.51 1010.46 1010.44 1010.48 1010.57 1010.66 1010.66 1010.52 1010.19 1009.68 1009.04 1008.35 1007.71 1007.17 1006.78 1006.52 1006.35 1006.20 1006.02 1005.78 1005.48 1005.16 1004.90 1004.73 1004.71 1004.83 1005.07 1005.36 1005.65 1005.88 1006.02 1006.08 1006.08 1006.09 1006.15 1006.29 1006.53 1006.83 1007.18
1003.21 1004.09 1005.23 1006.52 1007.79 1008.92 1009.79 1010.35 1010.62 1010.65 1010.55 1010.43 1010.37 1010.39 1010.47 1010.56 1010.57 1010.44 1010.13 1009.66 1009.08 1008.47 1007.90 1007.45 1007.14 1006.95 1006.83 1006.71 1006.54 1006.30 1006.00 1005.68 1005.40 1005.22 1005.19 1005.28 1005.48 1005.73 1005.96 1006.12 1006.18 1006.16 1006.09 1006.03 1006.02 1006.09 1006.28 1006.55 1006.88
1003.77 1004.80 1006.05 1007.35 1008.57 1009.58 1010.29 1010.67 1010.77 1010.67 1010.47 1010.29 1010.20 1010.20 1010.27 1010.34 1010.35 1010.22 1009.93 1009.49 1008.98 1008.45 1007.99 1007.66 1007.46 1007.36 1007.32 1007.26 1007.14 1006.92 1006.64 1006.33 1006.05 1005.86 1005.80 1005.85 1006.00 1006.17 1006.32 1006.39 1006.37 1006.26 1006.11 1005.97 1005.89 1005.91 1006.04 1006.28 1006.59
1004.46 1005.62 1006.91 1008.19 1009.30 1010.15 1010.68 1010.88 1010.83 1010.60 1010.33 1010.11 1009.98 1009.97 1010.03 1010.09 1010.07 1009.93 1009.64 1009.24 1008.79 1008.36 1008.02 1007.80 1007.73 1007.75 1007.80 1007.82 1007.76 1007.59 1007.34 1007.05 1006.78 1006.59 1006.50 1006.51 1006.59 1006.69 1006.76 1006.73 1006.62 1006.43 1006.21 1005.99 1005.85 1005.82 1005.90 1006.10 1006.39
1005.23 1006.47 1007.76 1008.96 1009.93 1010.61 1010.95 1010.99 1010.80 1010.49 1010.17 1009.93 1009.80 1009.79 1009.83 1009.86 1009.82 1009.65 1009.36 1008.99 1008.60 1008.25 1008.02 1007.93 1007.98 1008.11 1008.26 1008.35 1008.35 1008.23 1008.02 1007.76 1007.51 1007.32 1007.21 1007.19 1007.22 1007.25 1007.23 1007.14 1006.95 1006.69 1006.40 1006.14 1005.95 1005.87 1005.91 1006.08 1006.34
1006.00 1007.27 1008.51 1009.59 1010.41 1010.91 1011.09 1011.00 1010.72 1010.36 1010.04 1009.81 1009.71 1009.70 1009.73 1009.75 1009.67 1009.49 1009.19 1008.84 1008.49 1008.22 1008.08 1008.09 1008.23 1008.45 1008.66 1008.81 1008.85 1008.77 1008.59 1008.36 1008.14 1007.96 1007.85 1007.82 1007.81 1007.79 1007.72 1007.57 1007.33 1007.03 1006.70 1006.41 1006.19 1006.08 1006.09 1006.23 1006.45
1006.71 1007.93 1009.09 1010.03 1010.70 1011.04 1011.09 1010.90 1010.58 1010.23 1009.94 1009.77 1009.71 1009.73 1009.78 1009.78 1009.68 1009.48 1009.18 1008.84 1008.53 1008.32 1008.25 1008.32 1008.51 1008.77 1009.00 1009.17 1009.22 1009.15 1009.00 1008.79 1008.59 1008.44 1008.35 1008.32 1008.31 1008.28 1008.18 1008.00 1007.74 1007.42 1007.08 1006.78 1006.55 1006.42 1006.42 1006.52 1006.71
1007.28 1008.44 1009.46 1010.27 1010.78 1010.99 1010.95 1010.72 1010.40 1010.10 1009.88 1009.78 1009.78 1009.85 1009.92 1009.93 1009.84 1009.62 1009.33 1009.01 1008.74 1008.56 1008.53 1008.62 1008.83 1009.07 1009.29 1009.43 1009.46 1009.38 1009.22 1009.03 1008.86 1008.75 1008.70 1008.69 1008.70 1008.67 1008.58 1008.40 1008.14 1007.83 1007.49 1007.20 1006.97 1006.85 1006.83 1006.91 1007.07
1007.72 1008.77 1009.65 1010.30 1010.68 1010.80 1010.70 1010.47 1010.20 1009.97 1009.84 1009.83 1009.91 1010.03 1010.14 1010.16 1010.08 1009.88 1009.60 1009.31 1009.06 1008.91 1008.89 1008.99 1009.17 1009.37 1009.53 1009.61 1009.59 1009.48 1009.32 1009.14 1009.00 1008.92 1008.91 1008.94 1008.98 1008.99 1008.92 1008.76 1008.52 1008.22 1007.91 1007.64 1007.42 1007.30 1007.28 1007.34 1007.47
1008.04 1008.95 1009.69 1010.21 1010.48 1010.53 1010.41 1010.20 1009.99 1009.85 1009.81 1009.89 1010.04 1010.22 1010.36 1010.41 1010.34 1010.16 1009.91 1009.66 1009.44 1009.32 1009.30 1009.39 1009.52 1009.66 1009.76 1009.77 1009.69 1009.54 1009.36 1009.18 1009.07 1009.03 1009.06 1009.14 1009.22 1009.26 1009.22 1009.09 1008.88 1008.61 1008.33 1008.07 1007.87 1007.75 1007.72 1007.76 1007.86
1008.28 1009.06 1009.66 1010.06 1010.25 1010.25 1010.13 1009.97 1009.82 1009.76 1009.80 1009.95 1010.15 1010.36 1010.53 1010.59 1010.55 1010.40 1010.20 1009.98 1009.81 1009.71 1009.71 1009.77 1009.87 1009.96 1009.99 1009.95 1009.82 1009.64 1009.44 1009.28 1009.18 1009.18 1009.24 1009.35 1009.47 1009.54 1009.53 1009.43 1009.24 1009.00 1008.74 1008.50 1008.31 1008.19 1008.14 1008.16 1008.23
1008.50 1009.15 1009.64 1009.94 1010.07 1010.05 1009.95 1009.82 1009.73 1009.73 1009.82 1010.00 1010.23 1010.45 1010.62 1010.70 1010.67 1010.56 1010.40 1010.23 1010.10 1010.04 1010.05 1010.12 1010.20 1010.26 1010.27 1010.19 1010.04 1009.86 1009.66 1009.52 1009.44 1009.45 1009.54 1009.67 1009.79 1009.88 1009.89 1009.80 1009.64 1009.41 1009.17 1008.94 1008.75 1008.62 1008.56 1008.56 1008.60
1008.73 1009.28 1009.68 1009.91 1010.01 1009.98 1009.90 1009.81 1009.76 1009.78 1009.89 1010.07 1010.28 1010.48 1010.64 1010.72 1010.71 1010.62 1010.50 1010.38 1010.30 1010.28 1010.33 1010.41 1010.51 1010.57 1010.58 1010.52 1010.40 1010.24 1010.07 1009.95 1009.89 1009.91 1010.00 1010.12 1010.24 1010.32 1010.33 1010.25 1010.09 1009.89 1009.65 1009.42 1009.23 1009.09 1009.01 1008.97 1008.98
1009.02 1009.49 1009.82 1010.01 1010.09 1010.07 1010.00 1009.93 1009.89 1009.91 1009.99 1010.14 1010.31 1010.48 1010.61 1010.68 1010.68 1010.62 1010.54 1010.47 1010.43 1010.45 1010.53 1010.65 1010.78 1010.89 1010.95 1010.94 1010.88 1010.78 1010.67 1010.58 1010.54 1010.56 1010.63 1010.72 1010.81 1010.86 1010.85 1010.78 1010.63 1010.43 1010.20 1009.98 1009.78 1009.62 1009.51 1009.44 1009.41
1009.36 1009.76 1010.04 1010.21 1010.28 1010.28 1010.22 1010.15 1010.09 1010.09 1010.12 1010.21 1010.33 1010.46 1010.56 1010.62 1010.64 1010.61 1010.57 1010.53 1010.53 1010.59 1010.70 1010.85 1011.03 1011.19 1011.33 1011.41 1011.44 1011.43 1011.39 1011.35 1011.33 1011.34 1011.38 1011.42 1011.47 1011.48 1011.45 1011.36 1011.22 1011.04 1010.83 1010.61 1010.41 1010.23 1010.09 1009.99 1009.94
1009.71 1010.05 1010.31 1010.47 1010.55 1010.55 1010.49 1010.41 1010.32 1010.25 1010.23 1010.25 1010.32 1010.40 1010.49 1010.57 1010.61 1010.63 1010.62 1010.62 1010.65 1010.72 1010.84 1011.02 1011.24 1011.47 1011.69 1011.88 1012.02 1012.11 1012.16 1012.18 1012.18 1012.18 1012.17 1012.17 1012.16 1012.13 1012.08 1011.98 1011.85 1011.70 1011.51 1011.31 1011.12 1010.93 1010.77 1010.64 1010.56
1010.03 1010.33 1010.57 1010.74 1010.82 1010.83 1010.76 1010.64 1010.49 1010.36 1010.26 1010.21 1010.23 1010.29 1010.40 1010.51 1010.60 1010.68 1010.73 1010.77 1010.81 1010.88 1011.01 1011.18 1011.42 1011.70 1011.99 1012.28 1012.54 1012.74 1012.88 1012.97 1012.99 1012.98 1012.95 1012.89 1012.83 1012.76 1012.69 1012.60 1012.50 1012.37 1012.23 1012.07 1011.89 1011.71 1011.53 1011.38 1011.27
1010.28 1010.55 1010.79 1010.96 1011.06 1011.06 1010.97 1010.79 1010.58 1010.35 1010.16 1010.04 1010.02 1010.09 1010.22 1010.40 1010.59 1010.75 1010.87 1010.95 1011.01 1011.08 1011.17 1011.33 1011.56 1011.86 1012.21 1012.58 1012.93 1013.24 1013.48 1013.63 1013.70 1013.69 1013.63 1013.54 1013.44 1013.34 1013.26 1013.19 1013.12 1013.05 1012.96 1012.84 1012.70 1012.53 1012.36 1012.20 1012.07
1010.44 1010.70 1010.95 1011.14 1011.25 1011.24 1011.11 1010.87 1010.55 1010.21 1009.92 1009.72 1009.66 1009.74 1009.93 1010.21 1010.51 1010.78 1010.99 1011.14 1011.22 1011.28 1011.34 1011.46 1011.66 1011.95 1012.33 1012.75 1013.19 1013.59 1013.92 1014.15 1014.26 1014.27 1014.20 1014.09 1013.97 1013.86 1013.79 1013.74 1013.72 1013.70 1013.67 1013.60 1013.51 1013.37 1013.21 1013.05 1012.91
1010.53 1010.80 1011.08 1011.31 1011.44 1011.42 1011.23 1010.89 1010.45 1009.97 1009.55 1009.26 1009.15 1009.23 1009.49 1009.87 1010.30 1010.71 1011.05 1011.27 1011.40 1011.45 1011.48 1011.55 1011.71 1011.97 1012.35 1012.81 1013.31 1013.79 1014.20 1014.50 1014.67 1014.72 1014.67 1014.56 1014.44 1014.33 1014.27 1014.25 1014.28 1014.32 1014.34 1014.34 1014.29 1014.19 1014.06 1013.91 1013.77
1010.58 1010.90 1011.24 1011.53 1011.69 1011.65 1011.40 1010.95 1010.35 1009.71 1009.13 1008.71 1008.52 1008.59 1008.90 1009.38 1009.94 1010.50 1010.97 1011.30 1011.48 1011.56 1011.57 1011.60 1011.71 1011.93 1012.30 1012.77 1013.32 1013.86 1014.35 1014.72 1014.96 1015.06 1015.04 1014.96 1014.85 1014.76 1014.72 1014.73 1014.79 1014.88 1014.97 1015.02 1015.02 1014.96 1014.86 1014.73 1014.60
1010.64 1011.06 1011.50 1011.86 1012.06 1012.02 1011.70 1011.12 1010.36 1009.52 1008.75 1008.17 1007.86 1007.88 1008.19 1008.74 1009.42 1010.12 1010.72 1011.17 1011.45 1011.57 1011.59 1011.59 1011.67 1011.86 1012.21 1012.69 1013.26 1013.85 1014.41 1014.85 1015.16 1015.32 1015.36 1015.31 1015.23 1015.16 1015.14 1015.18 1015.27 1015.40 1015.52 1015.62 1015.66 1015.64 1015.58 1015.48 1015.38
1010.77 1011.31 1011.88 1012.35 1012.61 1012.57 1012.19 1011.49 1010.55 1009.51 1008.52 1007.73 1007.27 1007.18 1007.46 1008.03 1008.79 1009.59 1010.32 1010.90 1011.27 1011.46 1011.52 1011.53 1011.60 1011.78 1012.10 1012.59 1013.17 1013.81 1014.42 1014.93 1015.30 1015.53 1015.62 1015.62 1015.57 1015.53 1015.53 1015.59 1015.71 1015.85 1016.01 1016.13 1016.20 1016.22 1016.18 1016.12 1016.06
1010.97 1011.66 1012.37 1012.96 1013.30 1013.28 1012.86 1012.05 1010.95 1009.70 1008.49 1007.49 1006.84 1006.60 1006.78 1007.33 1008.10 1008.98 1009.80 1010.48 1010.95 1011.23 1011.35 1011.41 1011.48 1011.67 1012.00 1012.48 1013.09 1013.75 1014.40 1014.97 1015.40 1015.68 1015.84 1015.88 1015.87 1015.86 1015.89 1015.96 1016.09 1016.24 1016.41 1016.54 1016.64 1016.67 1016.67 1016.65 1016.61
1011.22 1012.06 1012.91 1013.62 1014.05 1014.07 1013.63 1012.75 1011.52 1010.10 1008.69 1007.48 1006.62 1006.21 1006.25 1006.71 1007.45 1008.33 1009.21 1009.96 1010.53 1010.89 1011.09 1011.21 1011.33 1011.54 1011.88 1012.37 1012.99 1013.67 1014.34 1014.95 1015.43 1015.77 1015.97 1016.08 1016.11 1016.14 1016.18 1016.27 1016.41 1016.57 1016.73 1016.87 1016.97 1017.02 1017.04 1017.04 1017.04
1011.48 1012.44 1013.41 1014.22 1014.72 1014.79 1014.36 1013.45 1012.15 1010.61 1009.04 1007.66 1006.61 1006.02 1005.91 1006.22 1006.88 1007.72 1008.60 1009.39 1010.02 1010.46 1010.74 1010.93 1011.11 1011.36 1011.73 1012.24 1012.86 1013.55 1014.24 1014.87 1015.39 1015.77 1016.03 1016.18 1016.27 1016.33 1016.41 1016.53 1016.67 1016.83 1016.99 1017.12 1017.22 1017.27 1017.29 1017.31 1017.33
1011.67 1012.70 1013.73 1014.61 1015.17 1015.28 1014.89 1013.99 1012.68 1011.09 1009.46 1007.96 1006.77 1006.02 1005.74 1005.91 1006.43 1007.18 1008.01 1008.79 1009.45 1009.94 1010.30 1010.56 1010.81 1011.12 1011.53 1012.05 1012.68 1013.38 1014.07 1014.72 1015.26 1015.68 1015.98 1016.19 1016.34 1016.45 1016.58 1016.72 1016.89 1017.06 1017.21 1017.34 1017.42 1017.47 1017.48 1017.49 1017.52
1011.73 1012.75 1013.78 1014.66 1015.24 1015.39 1015.05 1014.21 1012.95 1011.41 1009.78 1008.25 1007.00 1006.14 1005.72 1005.74 1006.12 1006.74 1007.47 1008.20 1008.84 1009.36 1009.77 1010.11 1010.42 1010.79 1011.24 1011.80 1012.45 1013.14 1013.84 1014.50 1015.06 1015.52 1015.86 1016.13 1016.34 1016.52 1016.70 1016.89 1017.08 1017.27 1017.43 1017.55 1017.62 1017.64 1017.64 1017.62 1017.64
1011.62 1012.54 1013.48 1014.29 1014.84 1015.01 1014.72 1013.97 1012.84 1011.41 1009.89 1008.43 1007.20 1006.30 1005.79 1005.69 1005.92 1006.39 1007.00 1007.64 1008.23 1008.74 1009.18 1009.56 1009.95 1010.38 1010.89 1011.48 1012.15 1012.86 1013.57 1014.23 1014.82 1015.30 1015.70 1016.03 1016.30 1016.55 1016.80 1017.05 1017.29 1017.50 1017.67 1017.79 1017.84 1017.84 1017.80 1017.76 1017.74
1011.36 1012.11 1012.88 1013.55 1014.00 1014.14 1013.90 1013.27 1012.29 1011.06 1009.72 1008.42 1007.29 1006.43 1005.90 1005.71 1005.81 1006.14 1006.60 1007.12 1007.63 1008.11 1008.55 1008.97 1009.41 1009.91 1010.47 1011.12 1011.83 1012.56 1013.28 1013.96 1014.57 1015.09 1015.54 1015.93 1016.28 1016.60 1016.92 1017.23 1017.52 1017.77 1017.96 1018.08 1018.11 1018.09 1018.02 1017.93 1017.88
Thickness
5803 5809 5808 5796 5772 5755 5746 5755 5764 5764 5768 5778 5783 5778 5767 5760 5751 5740 5764 5778 5778 5776 5774 5771 5771 5771 5771 5772 5772 5773 5773 5772 5771 5770 5770 5769 5769 5770 5770 5770 5770 5770 5770 5770 5770 5769 5769 5769 5770
5806 5810 5799 5782 5757 5738 5740 5755 5758 5763 5773 5782 5782 5778 5768 5761 5765 5763 5768 5776 5778 5776 5772 5769 5769 5769 5769 5769 5770 5770 5770 5769 5768 5767 5767 5766 5766 5766 5767 5767 5766 5766 5767 5767 5767 5767 5766 5766 5767
5805 5807 5786 5769 5753 5742 5742 5757 5761 5770 5779 5779 5774 5773 5765 5758 5764 5765 5771 5777 5777 5774 5770 5767 5767 5767 5767 5767 5768 5769 5768 5767 5765 5764 5763 5763 5763 5763 5763 5763 5763 5763 5763 5763 5764 5764 5763 5763 5764
5802 5793 5781 5759 5746 5753 5756 5762 5768 5767 5773 5777 5773 5762 5761 5767 5767 5770 5775 5777 5775 5772 5769 5766 5765 5765 5764 5764 5765 5767 5767 5764 5762 5761 5760 5759 5759 5759 5759 5759 5759 5759 5760 5760 5760 5760 5760 5760 5760
5798 5778 5758 5746 5747 5758 5766 5770 5772 5765 5765 5769 5767 5754 5752 5765 5772 5773 5774 5775 5772 5770 5768 5765 5763 5762 5762 5761 5762 5762 5762 5761 5759 5757 5756 5756 5756 5756 5755 5755 5755 5756 5756 5756 5756 5757 5757 5757 5757
5779 5771 5746 5737 5744 5758 5766 5771 5770 5764 5764 5766 5763 5754 5751 5765 5767 5769 5772 5772 5772 5769 5767 5763 5761 5760 5759 5759 5758 5758 5758 5757 5756 5755 5754 5753 5753 5752 5752 5752 5752 5752 5752 5753 5753 5753 5753 5753 5753
5770 5759 5745 5743 5742 5749 5762 5773 5767 5762 5760 5763 5766 5752 5751 5761 5766 5770 5770 5771 5770 5768 5766 5763 5761 5759 5757 5756 5755 5755 5754 5754 5753 5752 5751 5751 5750 5749 5748 5748 5748 5748 5748 5749 5749 5749 5749 5749 5749
5778 5761 5747 5745 5741 5745 5763 5769 5769 5764 5760 5772 5771 5752 5747 5759 5768 5769 5768 5768 5767 5766 5765 5763 5761 5759 5756 5754 5753 5752 5751 5751 5750 5749 5748 5748 5747 5746 5745 5745 5745 5745 5745 5745 5746 5746 5746 5746 5745
5781 5752 5739 5744 5744 5748 5763 5762 5766 5772 5766 5765 5767 5762 5761 5766 5767 5764 5762 5761 5761 5762 5763 5762 5760 5758 5756 5754 5751 5750 5749 5748 5748 5747 5746 5745 5744 5744 5743 5742 5742 5742 5742 5742 5742 5742 5743 5742 5742
5768 5743 5746 5757 5760 5756 5761 5760 5762 5761 5755 5754 5757 5761 5765 5765 5762 5757 5755 5754 5755 5756 5759 5760 5759 5757 5755 5753 5750 5748 5747 5746 5746 5746 5744 5743 5743 5742 5741 5739 5739 5739 5739 5739 5739 5739 5740 5739 5739
5764 5750 5756 5762 5766 5763 5758 5759 5765 5755 5746 5751 5751 5754 5759 5759 5758 5755 5754 5754 5754 5755 5756 5757 5757 5755 5753 5751 5749 5747 5746 5744 5744 5744 5742 5741 5741 5739 5738 5737 5736 5736 5736 5736 5736 5736 5736 5736 5736
5759 5759 5761 5760 5764 5762 5758 5758 5757 5754 5753 5762 5762 5760 5758 5756 5755 5754 5754 5754 5754 5753 5753 5755 5756 5754 5752 5749 5747 5746 5744 5743 5742 5741 5741 5739 5738 5737 5735 5734 5734 5733 5733 5733 5733 5733 5733 5732 5732
5754 5754 5760 5762 5762 5761 5760 5756 5754 5753 5760 5764 5762 5759 5756 5755 5755 5756 5757 5756 5754 5751 5752 5752 5753 5751 5749 5747 5745 5744 5742 5741 5740 5739 5738 5737 5736 5734 5733 5732 5731 5730 5730 5729 5729 5729 5728 5728 5728
5755 5756 5757 5758 5758 5758 5752 5752 5752 5752 5761 5760 5757 5754 5754 5753 5754 5754 5754 5752 5752 5751 5750 5750 5750 5749 5747 5744 5742 5741 5740 5739 5737 5735 5735 5734 5733 5732 5730 5729 5728 5727 5727 5726 5726 5725 5724 5723 5723
5759 5749 5748 5752 5754 5754 5751 5739 5746 5755 5759 5754 5753 5752 5752 5752 5753 5752 5752 5752 5752 5750 5750 5748 5748 5747 5744 5742 5740 5739 5738 5736 5734 5732 5731 5730 5730 5729 5727 5726 5725 5724 5724 5723 5722 5721 5720 5719 5718
5751 5740 5730 5744 5751 5752 5740 5723 5744 5756 5753 5748 5749 5749 5747 5749 5751 5752 5753 5752 5752 5750 5747 5746 5746 5744 5742 5740 5738 5736 5734 5733 5731 5729 5728 5727 5727 5726 5724 5723 5722 5721 5720 5719 5718 5716 5714 5713 5712
5737 5727 5726 5735 5749 5748 5738 5726 5742 5753 5749 5746 5746 5746 5745 5746 5748 5750 5751 5750 5749 5748 5745 5742 5742 5740 5739 5737 5735 5733 5731 5729 5727 5726 5725 5724 5723 5722 5721 5719 5718 5718 5716 5715 5714 5712 5710 5708 5707
5725 5727 5726 5729 5742 5743 5734 5731 5740 5748 5747 5744 5745 5745 5744 5743 5744 5748 5748 5748 5747 5746 5744 5741 5739 5737 5736 5733 5731 5728 5727 5725 5724 5723 5722 5721 5720 5719 5717 5716 5715 5714 5712 5710 5709 5707 5706 5705 5704
5738 5731 5726 5732 5745 5739 5731 5730 5736 5743 5742 5741 5742 5742 5741 5741 5744 5747 5746 5745 5743 5742 5740 5737 5735 5733 5731 5728 5725 5721 5719 5720 5720 5720 5719 5718 5717 5715 5714 5713 5711 5710 5708 5706 5705 5703 5701 5700 5701
5736 5727 5724 5731 5742 5736 5728 5728 5737 5741 5739 5739 5739 5740 5739 5739 5740 5740 5740 5739 5737 5735 5734 5733 5731 5729 5727 5724 5723 5720 5718 5717 5717 5716 5715 5714 5713 5713 5712 5709 5708 5706 5704 5703 5701 5699 5696 5696 5697
5731 5725 5723 5723 5732 5735 5726 5720 5729 5737 5739 5738 5739 5739 5737 5736 5734 5734 5733 5732 5731 5730 5729 5729 5727 5725 5723 5721 5719 5717 5715 5713 5711 5710 5710 5710 5710 5709 5708 5707 5705 5704 5701 5699 5697 5696 5693 5689 5691
5721 5732 5730 5725 5717 5714 5721 5700 5718 5728 5727 5729 5730 5732 5731 5732 5731 5729 5729 5727 5726 5726 5726 5725 5723 5721 5719 5717 5714 5710 5706 5704 5705 5706 5706 5707 5706 5705 5704 5703 5702 5700 5698 5696 5695 5694 5691 5687 5684
5726 5734 5729 5724 5717 5713 5720 5708 5711 5724 5716 5720 5724 5726 5727 5728 5727 5725 5724 5724 5724 5722 5721 5719 5718 5716 5714 5713 5710 5707 5704 5704 5704 5704 5703 5702 5702 5701 5700 5699 5698 5697 5695 5693 5692 5690 5688 5685 5682
5732 5728 5726 5724 5714 5698 5715 5709 5702 5717 5718 5719 5722 5724 5723 5724 5723 5722 5721 5720 5719 5718 5716 5714 5712 5711 5710 5708 5706 5704 5701 5700 5698 5697 5697 5696 5696 5697 5696 5695 5694 5693 5691 5690 5688 5685 5683 5681 5680
5725 5708 5693 5690 5690 5697 5721 5711 5705 5721 5727 5723 5720 5719 5720 5720 5718 5716 5714 5713 5712 5711 5710 5709 5707 5705 5705 5703 5702 5700 5699 5697 5694 5693 5693 5691 5691 5691 5691 5691 5689 5688 5687 5686 5684 5681 5679 5677 5675
5715 5708 5686 5674 5681 5696 5712 5705 5710 5725 5727 5725 5721 5718 5716 5714 5713 5712 5710 5708 5707 5706 5705 5704 5702 5699 5699 5697 5696 5696 5695 5693 5691 5691 5690 5688 5687 5687 5688 5687 5685 5683 5682 5681 5679 5677 5674 5673 5671
5708 5706 5711 5695 5693 5688 5698 5706 5710 5719 5716 5714 5713 5710 5707 5707 5707 5706 5706 5704 5703 5702 5700 5699 5697 5695 5693 5692 5691 5691 5689 5688 5687 5686 5686 5685 5684 5684 5683 5682 5681 5679 5677 5676 5674 5671 5669 5667 5665
5715 5710 5700 5687 5674 5672 5689 5693 5688 5695 5699 5702 5702 5701 5701 5701 5701 5700 5700 5699 5698 5697 5696 5695 5693 5690 5689 5687 5686 5685 5683 5683 5682 5681 5679 5679 5678 5678 5677 5676 5675 5673 5672 5670 5668 5665 5663 5661 5659
5703 5700 5697 5690 5687 5670 5667 5679 5704 5700 5699 5697 5698 5698 5696 5695 5695 5694 5693 5693 5693 5692 5690 5688 5686 5684 5682 5681 5680 5678 5677 5676 5676 5675 5674 5673 5672 5671 5670 5669 5669 5667 5665 5663 5661 5658 5656 5654 5653
5706 5700 5695 5677 5676 5680 5670 5674 5707 5703 5701 5697 5694 5694 5693 5690 5689 5688 5687 5686 5685 5684 5683 5680 5679 5677 5676 5675 5674 5672 5671 5670 5669 5668 5667 5666 5665 5664 5663 5662 5661 5659 5658 5656 5653 5651 5649 5647 5645